Location: Saint-Gaudens
(43.1069°N, 0.7238°E)
Time: 19:08:00
(UTC+02:00)

ISS - Visible Passes

Search period start: 19 April 2025 00:00
Search period end: 29 April 2025 00:00
Orbit: 414 x 421 km, 51.6° (Epoch: 19 April)

Date Brightness Start Highest point End Pass type
(mag) Time Alt. Az. Time Alt. Az. Time Alt. Az.
20 Apr -2.6 06:03:29 13° SSW 06:06:07 35° SE 06:09:12 10° ENE visible
21 Apr -1.9 05:17:21 20° SSE 05:18:07 21° SE 05:20:43 10° E visible
22 Apr -0.9 04:31:07 12° ESE 04:31:07 12° ESE 04:31:41 10° ESE visible
22 Apr -3.8 06:04:01 17° WSW 06:06:27 85° NNW 06:09:48 10° NE visible
23 Apr -3.5 05:17:41 48° S 05:18:16 58° SE 05:21:34 10° ENE visible
24 Apr -1.9 04:31:15 26° E 04:31:15 26° E 04:33:10 10° ENE visible
24 Apr -2.8 06:04:09 13° W 06:06:51 38° NNW 06:10:00 10° NE visible
25 Apr -3.4 05:17:39 40° W 05:18:31 56° NNW 05:21:48 10° NE visible
26 Apr -2.8 04:31:04 46° NE 04:31:04 46° NE 04:33:33 10° ENE visible
26 Apr -1.9 06:04:30 10° WNW 06:07:17 24° NNW 06:10:04 10° NE visible
27 Apr -0.9 03:44:25 16° ENE 03:44:25 16° ENE 03:45:10 10° ENE visible
27 Apr -2.2 05:17:18 20° WNW 05:18:47 29° NNW 05:21:47 10° NE visible
28 Apr -2.6 04:30:36 38° N 04:30:36 38° N 04:33:30 10° NE visible
28 Apr -1.4 06:05:14 10° NW 06:07:42 19° N 06:10:11 10° NE visible
